www.pogodaiklimat.ru

Погода и климат >> Архив погоды >> Россия >> Якутия >> Шелагонцы


АРХИВ ПОГОДЫ в Шелагонцах

Время (UTC), дата Ветер
(напр.,м/с)
 
Видим.   Явления Облачность Т
(С)
Тd
(С)
f
(%)
Тe
(С)
Тes
(С)
Комфортность P
(гПа)
Po
(гПа)
Тmin
(С)
Tmax
(С)
R
(мм)
R24
(мм)
S
(см)
12 12.08 Ю 3 50 км 10/10 600 м
[Sc]
+16.8 +11.9 73 +17 +17 1008.9 981.4 +23.2
15 12.08 штиль 0 50 км 10/10 600 м
[Sc]
+8.1 +7.7 97 +7 +7 1010.7 982.3
18 12.08 штиль 0 50 км 10/10 600 м
[Sc]
+2.1 +1.8 98 +1 +1 1012.1 983.0
21 12.08 штиль 0 50 км 10/10 600 м
[Sc]
+2.3 +1.8 96 +1 +1 1013.0 983.9
00 13.08 Ю 1 50 км 10/10 600 м
[Sc]
+6.6 +5.9 95 +5 +5 1013.2 984.6 +2.0
03 13.08 Ю 3 50 км 8/6 600 м
[Sc Ac lent]
+16.6 +10.0 65 +16 +18 1011.8 984.2
06 13.08 В 3 50 км 8/4 1000 м
[Cu hum Ci fib]
+24.4 +9.1 38 +25 +28 комфорт 1010.2 983.4
09 13.08 СЗ 1 50 км 8/3 1000 м
[Cu hum Ci fib]
+25.2 +11.0 41 +26 +28 жарко 1009.1 982.4
12 13.08 С 3 50 км 8/8 600 м
[Sc]
+21.6 +15.0 66 +25 +25 комфорт 1009.8 982.8 +26.0
15 13.08 З 1 50 км 8/0
[Cc]
+11.6 +9.6 88 +11 +11 1011.1 983.0
18 13.08 штиль 0 50 км 8/0
[Cc]
+5.2 +4.7 97 +4 +4 1012.3 983.5
21 13.08 З 3 50 км 9/0
[Ac trans Cc]
+5.0 +4.8 99 +1 +1 1012.6 983.8
00 14.08 З 2 50 км 9/4 600 м
[Sc Ac trans]
+10.1 +7.6 84 +9 +10 1012.8 984.5 +4.5
03 14.08 З 3 50 км 10/10 600 м
[Sc]
+16.3 +10.3 68 +16 +16 1012.2 984.6
06 14.08 З 3 50 км 10/10 600 м
[Sc]
+17.6 +12.4 72 +18 +18 1012.5 985.0
09 14.08 штиль 0 50 км 10/10 600 м
[Sc]
+19.7 +13.0 65 +21 +21 комфорт 1011.6 984.3
12 14.08 штиль 0 50 км 10/10 600 м
[Sc]
+17.6 +14.5 82 +18 +18 1012.6 985.2 +20.0
15 14.08 штиль 0 50 км 10/10 600 м
[Sc]
+16.0 +12.4 79 +16 +16 1014.5 986.8
18 14.08 штиль 0 50 км 10/10 600 м
[Sc]
+12.4 +11.6 95 +12 +12 1015.7 987.7
21 14.08 С 5 50 км 10/10 600 м
[Sc]
+12.2 +10.1 87 +10 +10 1017.9 989.8
00 15.08 С 3 50 км 10/10 600 м
[Sc]
+11.7 +8.7 82 +10 +10 1019.4 991.2 +11.6
03 15.08 С 5 50 км 10/10 600 м
[Sc]
+12.8 +8.2 74 +11 +11 1019.7 991.5
06 15.08 СЗ 5 50 км 10/10 600 м
[Sc]
+12.4 +8.8 79 +10 +10 1020.2 992.0
09 15.08 С 3 50 км 10/10 600 м
[Sc]
+11.3 +8.5 83 +9 +9 1021.1 992.8
12 15.08 С 5 50 км 10/10 600 м
[Sc]
+11.1 +8.3 83 +8 +8 1021.6 993.2 +13.2
15 15.08 С 3 50 км 10/10 600 м
[Sc]
+10.8 +7.7 81 +9 +9 1022.2 993.8
18 15.08 штиль 0 50 км 10/10 600 м
[Sc]
+9.1 +8.3 95 +8 +8 1023.0 994.4
21 15.08 штиль 0 50 км 10/10 600 м
[Sc]
+8.0 +7.6 97 +7 +7 1023.6 994.8
00 16.08 С 4 50 км 10/10 600 м
[Sc]
+8.3 +5.7 84 +5 +5 1024.0 995.2 +8.0
03 16.08 С 4 50 км 10/10 600 м
[Sc]
+10.9 +6.4 74 +9 +9 1023.7 995.2
06 16.08 С 3 50 км 3/0
[Ci fib]
+16.5 +4.4 45 +16 +22 1021.4 993.5
09 16.08 С 3 50 км ясно +19.0 +4.5 38 +20 +22 1020.0 992.4
12 16.08 С 3 50 км 6/0
[Ci fib]
+16.2 +5.6 49 +16 +16 1020.6 992.7 +19.3
15 16.08 штиль 0 50 км 3/0
[Ci fib]
+3.4 +3.2 99 +2 +2 1022.4 993.2
18 16.08 штиль 0 50 км ясно -1.8 -2.1 98 -3 -3 1023.2 993.4
21 16.08 штиль 0 50 км ясно -1.4 -2.0 96 -3 -3 1023.8 994.0
00 17.08 Ю 1 50 км ясно +3.7 +1.7 87 +2 +6 1023.5 994.3 -1.8
03 17.08 С 3 50 км ясно +15.2 +3.1 44 +15 +21 1021.2 993.2
06 17.08 С 3 50 км ясно +19.0 -1.7 25 +19 +25 1019.6 992.0
09 17.08 С 5 50 км ясно +20.2 -0.9 24 +20 +21 1018.3 990.8
12 17.08 С 5 50 км ясно +18.6 +0.9 30 +18 +18 1017.9 990.3 +20.3
15 17.08 штиль 0 50 км 6/0
[Ci fib]
+4.0 +1.7 85 +3 +3 1020.5 991.4
18 17.08 штиль 0 50 км 10/0
[Ci fib]
+0.7 -0.7 90 -1 -1 1021.1 991.5
21 17.08 штиль 0 50 км 8/0
[Ci fib]
+1.6 +1.1 96 0 0 1021.5 992.0
00 18.08 З 1 50 км 3/0
[Ci fib]
+3.4 +0.5 81 +2 +5 1021.5 992.3 -1.8
03 18.08 штиль 0 50 км 3/0
[Ci fib]
+14.7 +4.1 49 +15 +23 1018.9 991.0
06 18.08 штиль 0 50 км 3/0
[Ci fib]
+22.0 +8.2 41 +23 +32 комфорт 1017.0 989.4
09 18.08 штиль 0 50 км 8/0
[Ci fib]
+22.0 +2.6 28 +22 +25 комфорт 1015.7 988.5
12 18.08 штиль 0 50 км 6/0
[Ci fib]
+16.9 +11.6 71 +17 +17 1016.1 988.4 +22.3
15 18.08 штиль 0 50 км 10/0
[Cs]
+4.4 +4.2 99 +3 +3 1017.6 988.6
18 18.08 штиль 0 50 км 10/0
[Cs]
+2.7 +2.7 100 +1 +1 1017.7 988.5
21 18.08 СВ 3 50 км 10/0
[Ci fib]
+3.9 +3.2 95 -0 -0 1018.0 988.9
00 19.08 Ю 1 50 км 10/0
[Ci fib]
+6.3 +2.9 79 +5 +7 1017.2 988.4 +2.7
03 19.08 Ю 3 50 км 10/0
[Ci fib]
+12.0 +5.6 65 +11 +13 1017.3 989.1
06 19.08 В 5 50 км 10/1 600 м
[Cu med, cong Ac trans Ci fib]
+18.3 +10.9 62 +18 +20 1014.8 987.0

 

Местоположение метеостанции Шелагонцы (Якутия, Россия): широта 66.25 долгота 114.20 высота над уровнем моря 236 м.

В архиве по умолчанию представлена погода в Шелагонцах за последнюю неделю. Архивные данные за месяц целиком и за предыдущие месяцы, начиная с января 2011 года, Вы можете получить, выбрав интересующий диапазон дат из раскрывающегося списка и нажав кнопку "Ввод!".


*Определитесь, кто Вы:
робот инопланетянин человек

Внимание! Время в таблицах - всемирное. Для получения местного времени необходимо прибавить поправку, которая равна 9 ч.

Смотрите также архив погоды в соседних городах и на ближайших метеорологических станциях:

Погода в Полярном (Якутия, Россия) (96 км)
Погода в Айхале (Якутия, Россия) (129 км)
Погода в Эйке (Якутия, Россия) (146 км)
Погода в Хабардино (Якутия, Россия) (200 км)
Погода в Чумпуруке (Якутия, Россия) (257 км)
Погода в Оленеке (Якутия, Россия) (262 км)
Погода в Ярольине (Якутия, Россия) (269 км)
Погода в Сухане (Якутия, Россия) (316 км)
Погода в Чернышевском (Якутия, Россия) (368 км)
Погода в Нюрбе (Якутия, Россия) (383 км)

Пояснения к столбцам:

Ветер - указаны скорость ветра в м/с - средняя за 10 мин, порывы в срок и между сроками (в фигурных скобках) и направление, откуда дует ветер: С - северный, СВ - северо-восточный, В - восточный, ЮВ - юго-восточный, Ю - южный, ЮЗ - юго-западный, З - западный, СЗ - северо-западный.
Видимость - горизонтальная дальность видимости в метрах или километрах. При видимости от 1 до 10 км при отсутствии осадков обычно наблюдается дымка, при ухудшении видимости до 1 км и менее - туман. В сухую погоду видимость может ухудшаться дымом, пылью или мглою.
Явления - указаны атмосферные явления, наблюдавшиеся в срок или в последний час перед сроком; фигурными скобками обозначены явления, наблюдавшиеся между сроками (за 1-3 часа до срока); квадратными скобками обозначены град или гололедные отложения с указанием их диаметра в мм.
Облачность - указаны через наклонную черту общая и нижняя облачность в баллах и высота нижней границы облаков в метрах; квадратными скобками обозначены формы облаков: Ci - перистые, Cs - перисто-слоистые, Cc - перисто-кучевые, Ac - высококучевые, As - высокослоистые, Sc - слоисто-кучевые, Ns - слоисто-дождевые, Cu - кучевые, Cb - кучево-дождевые. Подробнее классификацию облаков см. в Атласе облаков (PDF).
T - Температура воздуха - температура, измеренная на высоте 2 м над землей.
Td - Температура точки росы - температура, при понижении до которой содержащийся в воздухе водяной пар достигнет насыщения.
f - Относительная влажность воздуха - влажноcть воздуха, измеренная на высоте 2 м над землей.
Te - Эффективная температура - температура, которую ощущает одетый по сезону человек в тени. Характеристика душности погоды. При расчете учитывается влияние влажности воздуха и скорости ветра на теплоощущения человека.
Tes - Эффективная температура на солнце - температура, которую ощущает человек, с поправкой на солнечный нагрев. Характеристика знойности погоды. Зависит от высоты солнца над горизонтом, облачности и скорости ветра. Ночью, в пасмурную погоду, а также при ветре 12 м/с и более поправка равна нулю.
P - Атмосферное давление - приведенное к уровню моря атмосферное давление.
Po - Атмосферное давление - измеренное на уровне метеостанции атмосферное давление.
Tmin - Минимальная температура - минимум температуры воздуха на высоте 2 м над землей.
Tmax - Максимальная температура - максимум температуры воздуха на высоте 2 м над землей.
R - Количество осадков - Количество выпавших осадков за период времени, мм. При наведении курсора мыши на число - период времени, за который выпало указанное количество осадков.
R24 - Количество осадков - Количество выпавших осадков за 24 часа, мм.
S - Снежный покров - Высота снежного покрова, см. При наведении курсора мыши на число - состояние снежного покрова и степень покрытия местности в баллах.